EW5925 Weather Reports


time (UTC)temp
F
wind
direction
speed
knots
gust
knots
rain 1hr
in
rain 24hr
in
rain mn
in
humidity
%
barometer
mb
20260831213727 59 246 0.0 0.9 0.00 0.00 0.00 92 1029.5
20260831213157 58 246 0.0 0.0 0.00 0.00 0.00 92 1029.3
20260831212628 58 246 0.0 0.9 0.00 0.00 0.00 92 1029.3
20260831212106 58 246 0.0 0.9 0.00 0.00 0.00 92 1029.2
20260831211539 58 246 0.0 2.6 0.00 0.00 0.00 92 1029.1
20260831211008 58 246 0.0 2.6 0.00 0.00 0.00 92 1028.9
20260831210922 57 246 0.0 2.6 0.00 0.00 0.00 92 1028.9
20260831205930 57 246 0.0 2.6 0.00 0.00 0.00 91 1028.9
20260831205429 57 246 0.0 1.7 0.00 0.00 0.00 91 1028.8
20260831204923 57 246 0.0 2.6 0.00 0.00 0.00 91 1028.7
20260831204423 57 246 0.0 2.6 0.00 0.00 0.00 91 1028.6
20260831203920 57 246 0.0 1.7 0.00 0.00 0.00 91 1028.5
20260831203420 56 246 0.0 1.7 0.00 0.00 0.00 91 1028.5
20260831202921 56 246 0.0 1.7 0.00 0.00 0.00 91 1028.4
20260831202418 56 246 0.0 1.7 0.00 0.00 0.00 91 1028.3
20260831201918 56 246 0.0 1.7 0.00 0.00 0.00 91 1028.3
20260831201412 56 246 0.0 0.9 0.00 0.00 0.00 91 1028.3
20260831200911 56 246 0.0 0.0 0.00 0.00 0.00 91 1028.4
20260831200410 56 246 0.0 0.9 0.00 0.00 0.00 91 1028.2
20260831195912 56 246 0.0 0.9 0.00 0.00 0.00 91 1028.2
20260831195342 56 246 0.0 0.9 0.00 0.00 0.00 91 1028.1
20260831194820 56 246 0.0 0.9 0.00 0.00 0.00 91 1027.9
20260831194541 56 246 0.0 0.9 0.00 0.00 0.00 91 1027.8
20260831193804 56 246 0.0 0.9 0.00 0.00 0.00 91 1027.9
20260831193306 56 246 0.0 1.7 0.00 0.00 0.00 91 1027.9
20260831192747 56 246 0.0 1.7 0.00 0.00 0.00 91 1027.9
20260831192509 56 246 0.0 1.7 0.00 0.00 0.00 91 1027.7
20260831191722 56 246 0.0 2.6 0.00 0.00 0.00 91 1027.6
20260831191223 56 246 0.0 2.6 0.00 0.00 0.00 91 1027.6
20260831190708 56 246 0.9 2.6 0.00 0.00 0.00 91 1027.6
20260831190424 56 246 0.9 2.6 0.00 0.00 0.00 91 1027.7
20260831185640 56 247 1.7 2.6 0.00 0.00 0.00 91 1027.7
20260831185140 56 247 1.7 4.3 0.00 0.00 0.00 91 1027.7
20260831184636 56 247 0.9 4.3 0.00 0.00 0.00 91 1027.7
20260831184134 56 204 0.9 2.6 0.00 0.00 0.00 91 1027.7
20260831183633 56 210 0.0 1.7 0.00 0.00 0.00 92 1027.6
20260831183133 56 210 0.0 2.6 0.00 0.00 0.00 92 1027.5
20260831182631 56 210 0.0 2.6 0.00 0.00 0.00 92 1027.5
20260831182130 55 210 0.0 1.7 0.00 0.00 0.00 91 1027.5
20260831181629 55 210 0.0 0.9 0.00 0.00 0.00 91 1027.6
20260831181358 55 210 0.0 0.9 0.00 0.00 0.00 91 1027.6
20260831181114 55 210 0.0 0.0 0.00 0.00 0.00 91 1027.6
20260831180122 55 210 0.0 0.9 0.00 0.00 0.00 91 1027.6
20260831175620 55 210 0.0 0.9 0.00 0.00 0.00 91 1027.5
20260831175121 55 210 0.0 0.9 0.00 0.00 0.00 91 1027.5
20260831174610 55 210 0.0 0.9 0.00 0.00 0.00 91 1027.5
20260831174108 55 210 0.0 0.9 0.00 0.00 0.00 91 1027.5
20260831173606 55 210 0.0 0.0 0.00 0.00 0.00 91 1027.6
20260831173104 55 210 0.0 0.0 0.00 0.00 0.00 90 1027.7
20260831172604 55 210 0.0 0.0 0.00 0.00 0.00 90 1027.6
20260831172101 55 210 0.0 0.0 0.00 0.00 0.00 90 1027.6
20260831171559 55 210 0.0 0.9 0.00 0.00 0.00 90 1027.6
20260831171100 55 210 0.0 0.9 0.00 0.00 0.00 90 1027.6
20260831170554 55 210 0.0 0.9 0.00 0.00 0.00 90 1027.6
20260831170104 55 210 0.0 0.9 0.00 0.00 0.00 90 1027.7
20260831165550 55 210 0.0 0.9 0.00 0.00 0.00 89 1027.7
20260831165051 55 210 0.0 0.9 0.00 0.00 0.00 89 1027.8
20260831164548 55 210 0.0 0.9 0.00 0.00 0.00 89 1027.8
20260831164046 55 210 0.0 0.9 0.00 0.00 0.00 89 1027.8
20260831163543 55 210 0.0 0.9 0.00 0.00 0.00 89 1027.8
20260831163527 55 210 0.0 0.0 0.00 0.00 0.00 89 1027.8
20260831162542 55 210 0.0 0.0 0.00 0.00 0.00 89 1027.8
20260831162037 55 210 0.0 0.0 0.00 0.00 0.00 88 1027.9
20260831161538 55 210 0.0 0.0 0.00 0.00 0.00 88 1027.9
20260831161038 55 210 0.0 0.0 0.00 0.00 0.00 89 1028.0
20260831160532 55 210 0.0 0.0 0.00 0.00 0.00 88 1028.0
20260831160030 55 210 0.0 0.9 0.00 0.00 0.00 88 1028.1
20260831155528 55 210 0.0 0.9 0.00 0.00 0.00 88 1028.2
20260831155029 56 210 0.0 0.9 0.00 0.00 0.00 88 1028.3
20260831154501 56 210 0.0 0.9 0.00 0.00 0.00 88 1028.3
20260831154001 56 210 0.0 0.0 0.00 0.00 0.00 88 1028.4
20260831153458 56 210 0.0 0.0 0.00 0.00 0.00 87 1028.4
20260831152956 56 210 0.0 0.0 0.00 0.00 0.00 87 1028.5
20260831152454 56 210 0.0 0.0 0.00 0.00 0.00 87 1028.5
20260831151951 56 210 0.0 0.0 0.00 0.00 0.00 87 1028.5
20260831151716 56 210 0.0 0.0 0.00 0.00 0.00 87 1028.5
20260831150953 57 210 0.0 0.0 0.00 0.00 0.00 87 1028.5
20260831150715 57 210 0.0 0.0 0.00 0.00 0.00 87 1028.5
20260831145948 57 210 0.0 0.0 0.00 0.00 0.00 86 1028.5
20260831145923 57 210 0.0 0.0 0.00 0.00 0.00 86 1028.6
20260831144939 57 210 0.0 0.0 0.00 0.00 0.00 86 1028.6
20260831144437 58 210 0.0 0.0 0.00 0.00 0.00 86 1028.6
20260831143952 58 210 0.0 0.0 0.00 0.00 0.00 86 1028.7
20260831143411 58 210 0.0 0.0 0.00 0.00 0.00 86 1028.8
20260831142852 58 210 0.0 0.0 0.00 0.00 0.00 86 1028.8
20260831142353 58 210 0.0 0.0 0.00 0.00 0.00 86 1028.9
20260831141827 58 210 0.0 0.0 0.00 0.00 0.00 86 1028.9
20260831141325 59 210 0.0 1.7 0.00 0.00 0.00 86 1029.0
20260831140822 59 210 0.0 1.7 0.00 0.00 0.00 86 1029.1
20260831140319 59 210 0.0 1.7 0.00 0.00 0.00 86 1029.1
20260831140046 59 210 0.0 1.7 0.00 0.00 0.00 86 1029.1
20260831135539 59 210 0.9 1.7 0.00 0.00 0.00 85 1029.1
20260831134819 59 210 0.0 1.7 0.00 0.00 0.00 85 1029.1
20260831134312 60 210 0.0 0.9 0.00 0.00 0.00 85 1029.2
20260831133811 60 210 0.0 1.7 0.00 0.00 0.00 85 1029.2
20260831133308 60 210 0.0 1.7 0.00 0.00 0.00 85 1029.3
20260831132808 60 210 0.0 1.7 0.00 0.00 0.00 84 1029.3
20260831132259 61 210 0.0 1.7 0.00 0.00 0.00 84 1029.3
20260831132023 61 210 0.0 0.9 0.00 0.00 0.00 84 1029.4
20260831131255 61 210 0.0 0.9 0.00 0.00 0.00 84 1029.4
20260831130759 61 210 0.0 0.0 0.00 0.00 0.00 84 1029.5
20260831130246 62 210 0.0 0.0 0.00 0.00 0.00 83 1029.5
20260831125749 62 210 0.0 0.9 0.00 0.00 0.00 83 1029.5
20260831125214 62 210 0.0 0.9 0.00 0.00 0.00 83 1029.5
20260831124712 62 210 0.0 0.9 0.00 0.00 0.00 83 1029.6
20260831124211 63 210 0.0 0.9 0.00 0.00 0.00 83 1029.6
20260831123707 63 210 0.0 0.9 0.00 0.00 0.00 83 1029.6
20260831123431 63 210 0.0 0.9 0.00 0.00 0.00 83 1029.7
20260831122703 63 210 0.0 0.9 0.00 0.00 0.00 83 1029.7
20260831122216 63 210 0.0 1.7 0.00 0.00 0.00 83 1029.7
20260831121920 64 210 0.9 1.7 0.00 0.00 0.00 83 1029.7
20260831121158 64 210 0.0 1.7 0.00 0.00 0.00 83 1029.7
20260831120909 64 210 0.0 0.9 0.00 0.00 0.00 83 1029.7
20260831120151 64 210 0.0 2.6 0.00 0.00 0.00 83 1029.7
20260831115655 64 210 0.9 4.3 0.00 0.00 0.00 83 1029.7
20260831115145 64 227 0.9 4.3 0.00 0.00 0.00 83 1029.6
20260831114918 64 127 1.7 4.3 0.00 0.00 0.00 83 1029.7
20260831114142 64 118 1.7 6.1 0.00 0.00 0.00 83 1029.7
20260831113645 64 119 1.7 6.1 0.00 0.00 0.00 82 1029.7
20260831113119 64 117 2.6 6.1 0.00 0.00 0.00 82 1029.7
20260831112552 64 119 2.6 6.1 0.00 0.00 0.00 82 1029.8
20260831112054 64 103 2.6 5.2 0.00 0.00 0.00 82 1029.8
20260831111537 64 118 1.7 7.0 0.00 0.00 0.00 82 1029.8
20260831111048 64 117 1.7 7.0 0.00 0.00 0.00 81 1029.8
20260831110529 64 120 1.7 4.3 0.00 0.00 0.00 81 1029.7
20260831110027 64 125 1.7 7.0 0.00 0.00 0.00 81 1029.7
20260831105525 64 116 2.6 7.8 0.00 0.00 0.00 81 1029.7
20260831105024 64 124 2.6 7.8 0.00 0.00 0.00 81 1029.6
20260831104523 63 126 2.6 7.8 0.00 0.00 0.00 82 1029.6
20260831104019 63 120 3.5 8.7 0.00 0.00 0.00 83 1029.6
20260831103518 63 129 2.6 8.7 0.00 0.00 0.00 84 1029.6
20260831103018 63 125 0.9 7.0 0.00 0.00 0.00 84 1029.5
20260831102518 63 111 0.9 2.6 0.00 0.00 0.00 85 1029.5
20260831102234 63 111 0.9 1.7 0.00 0.00 0.00 84 1029.5
20260831101738 63 111 0.0 1.7 0.00 0.00 0.00 84 1029.5
20260831101320 63 111 0.0 0.9 0.00 0.00 0.00 84 1029.5
20260831101211 63 111 0.0 0.9 0.00 0.00 0.00 84 1029.4
20260831100228 63 111 0.0 0.0 0.00 0.00 0.00 83 1029.3
20260831095508 63 111 0.0 0.0 0.00 0.00 0.00 83 1029.3
20260831094941 63 111 0.0 0.9 0.00 0.00 0.00 83 1029.2
20260831094422 63 111 0.0 0.9 0.00 0.00 0.00 83 1029.2
20260831093924 63 111 0.0 0.9 0.00 0.00 0.00 83 1029.1
20260831093401 64 111 0.0 0.9 0.00 0.00 0.00 83 1029.1
20260831092847 64 111 0.0 1.7 0.00 0.00 0.00 83 1029.1
20260831092347 64 111 0.0 1.7 0.00 0.00 0.00 84 1029.1
20260831091818 64 111 0.0 1.7 0.00 0.00 0.00 83 1029.1
20260831091304 64 111 0.0 1.7 0.00 0.00 0.00 83 1029.1
20260831090804 64 111 0.0 1.7 0.00 0.00 0.00 83 1029.1
20260831090316 64 111 0.0 1.7 0.00 0.00 0.00 83 1029.1
20260831085805 64 111 0.0 1.7 0.00 0.00 0.00 82 1029.0
20260831085306 64 111 0.0 1.7 0.00 0.00 0.00 81 1029.0
20260831084804 64 111 0.0 1.7 0.00 0.00 0.00 80 1029.0
20260831084301 64 111 0.0 1.7 0.00 0.00 0.00 80 1028.9
20260831084020 64 111 0.9 3.5 0.00 0.00 0.00 80 1028.7
20260831083300 65 111 0.9 3.5 0.00 0.00 0.00 80 1028.7
20260831082757 65 111 0.9 3.5 0.00 0.00 0.00 79 1028.6
20260831082255 65 112 1.7 3.5 0.00 0.00 0.00 79 1028.6
20260831081751 65 109 1.7 4.3 0.00 0.00 0.00 79 1028.6
20260831081254 65 125 0.9 4.3 0.00 0.00 0.00 79 1028.5
20260831080952 65 124 0.9 4.3 0.00 0.00 0.00 78 1028.5
20260831080157 65 124 0.9 4.3 0.00 0.00 0.00 78 1028.4
20260831075645 65 124 0.9 4.3 0.00 0.00 0.00 78 1028.4
20260831075107 66 124 1.7 4.3 0.00 0.00 0.00 78 1028.4
20260831075033 66 114 0.9 4.3 0.00 0.00 0.00 78 1028.4
20260831074014 66 114 1.7 5.2 0.00 0.00 0.00 78 1028.4
20260831073446 66 115 2.6 7.0 0.00 0.00 0.00 78 1028.3
20260831072920 66 114 2.6 7.8 0.00 0.00 0.00 77 1028.2
20260831072353 66 122 1.7 5.2 0.00 0.00 0.00 77 1028.1
20260831071829 66 118 2.6 6.1 0.00 0.00 0.00 76 1028.1
20260831071301 66 124 2.6 6.1 0.00 0.00 0.00 76 1028.0
20260831070959 66 123 1.7 7.0 0.00 0.00 0.00 76 1028.0
20260831070221 66 122 1.7 6.1 0.00 0.00 0.00 76 1028.0
20260831065643 66 124 0.9 6.1 0.00 0.00 0.00 76 1027.9
20260831065115 66 149 1.7 6.1 0.00 0.00 0.00 76 1027.9
20260831064548 66 126 1.7 6.1 0.00 0.00 0.00 76 1027.9
20260831064018 66 116 1.7 6.1 0.00 0.00 0.00 76 1027.9
20260831063505 66 125 1.7 9.6 0.00 0.00 0.00 75 1027.8
20260831063017 66 101 1.7 9.6 0.00 0.00 0.00 76 1027.7
20260831062504 66 115 1.7 9.6 0.00 0.00 0.00 76 1027.7
20260831062003 66 126 2.6 9.6 0.00 0.00 0.00 76 1027.6
20260831061503 66 91 3.5 9.6 0.00 0.00 0.00 76 1027.6
20260831061223 66 132 3.5 13.0 0.00 0.00 0.00 76 1027.6
20260831060501 67 106 3.5 13.0 0.00 0.00 0.00 77 1027.6
20260831060222 67 100 5.2 12.2 0.00 0.00 0.00 76 1027.5
20260831055457 67 126 5.2 12.2 0.00 0.00 0.00 76 1027.5
20260831054957 67 91 4.3 12.2 0.00 0.00 0.00 76 1027.6
20260831054456 67 106 4.3 10.4 0.00 0.00 0.00 76 1027.5
20260831053955 67 132 4.3 10.4 0.00 0.00 0.00 76 1027.5
20260831053457 67 130 2.6 11.3 0.00 0.00 0.00 76 1027.5
20260831052955 67 127 2.6 11.3 0.00 0.00 0.00 75 1027.5
20260831052507 67 111 3.5 11.3 0.00 0.00 0.00 75 1027.5
20260831051956 67 131 4.3 11.3 0.00 0.00 0.00 74 1027.5
20260831051459 68 107 4.3 12.2 0.00 0.00 0.00 74 1027.5
20260831050952 68 114 4.3 12.2 0.00 0.00 0.00 73 1027.6
20260831050712 68 112 3.5 11.3 0.00 0.00 0.00 73 1027.6
20260831050438 69 149 3.5 9.6 0.00 0.00 0.00 73 1027.6
20260831045453 69 112 3.5 8.7 0.00 0.00 0.00 73 1027.7
20260831044953 69 129 3.5 9.6 0.00 0.00 0.00 73 1027.7
20260831044451 69 103 3.5 11.3 0.00 0.00 0.00 72 1027.8
20260831043950 69 95 4.3 11.3 0.00 0.00 0.00 71 1027.7
20260831043451 69 89 4.3 12.2 0.00 0.00 0.00 70 1027.7
20260831042951 70 130 4.3 12.2 0.00 0.00 0.00 69 1027.7
20260831042724 70 114 4.3 11.3 0.00 0.00 0.00 69 1027.8
20260831041948 70 113 4.3 11.3 0.00 0.00 0.00 69 1027.8
20260831041451 70 97 5.2 11.3 0.00 0.00 0.00 68 1027.8
20260831041217 70 131 5.2 10.4 0.00 0.00 0.00 68 1027.8
20260831040710 70 148 3.5 9.6 0.00 0.00 0.00 68 1027.8
20260831040208 70 122 3.5 9.6 0.00 0.00 0.00 69 1027.9
20260831035451 70 136 3.5 9.6 0.00 0.00 0.00 70 1027.9
20260831034935 70 165 3.5 10.4 0.00 0.00 0.00 69 1027.9
20260831034435 70 114 4.3 10.4 0.00 0.00 0.00 69 1028.0
20260831034139 71 65 4.3 10.4 0.00 0.00 0.00 68 1028.0
20260831034022 71 110 4.3 10.4 0.00 0.00 0.00 69 1028.0
20260831032929 71 118 3.5 13.9 0.00 0.00 0.00 68 1028.0
20260831032427 71 110 4.3 13.9 0.00 0.00 0.00 69 1028.0
20260831031927 71 105 5.2 13.9 0.00 0.00 0.00 69 1028.0
20260831031427 71 85 5.2 13.9 0.00 0.00 0.00 69 1028.1
20260831030923 71 115 4.3 11.3 0.00 0.00 0.00 68 1028.2
20260831030423 71 107 3.5 10.4 0.00 0.00 0.00 68 1028.2
20260831025924 72 105 3.5 11.3 0.00 0.00 0.00 67 1028.3
20260831025645 72 106 3.5 11.3 0.00 0.00 0.00 66 1028.3
20260831024922 73 105 3.5 10.4 0.00 0.00 0.00 66 1028.3
20260831024420 72 31 5.2 13.0 0.00 0.00 0.00 68 1028.3
20260831023921 72 126 5.2 13.0 0.00 0.00 0.00 67 1028.4
20260831023643 72 122 5.2 13.0 0.00 0.00 0.00 66 1028.4
20260831023155 73 139 5.2 13.0 0.00 0.00 0.00 65 1028.4
20260831022419 73 119 4.3 11.3 0.00 0.00 0.00 61 1028.4
20260831021919 73 129 3.5 11.3 0.00 0.00 0.00 59 1028.4
20260831021416 73 108 3.5 9.6 0.00 0.00 0.00 60 1028.4
20260831020917 73 121 3.5 9.6 0.00 0.00 0.00 60 1028.4
20260831020657 73 129 3.5 9.6 0.00 0.00 0.00 59 1028.5
20260831020137 73 125 3.5 11.3 0.00 0.00 0.00 57 1028.5
20260831015412 74 122 3.5 12.2 0.00 0.00 0.00 57 1028.5
20260831015143 74 126 4.3 12.2 0.00 0.00 0.00 56 1028.6
20260831014407 74 139 3.5 11.3 0.00 0.00 0.00 57 1028.6
20260831013905 73 118 2.6 7.8 0.00 0.00 0.00 57 1028.6
20260831013622 73 114 2.6 7.8 0.00 0.00 0.00 58 1028.7
20260831012904 74 112 2.6 7.8 0.00 0.00 0.00 57 1028.7
20260831012344 74 206 2.6 8.7 0.00 0.00 0.00 57 1028.7
20260831011845 74 139 2.6 7.0 0.00 0.00 0.00 55 1028.8
20260831011329 75 124 2.6 8.7 0.00 0.00 0.00 54 1028.8
20260831010829 75 125 2.6 8.7 0.00 0.00 0.00 53 1028.9
20260831010312 76 122 2.6 8.7 0.00 0.00 0.00 53 1028.9
20260831005811 75 57 2.6 7.0 0.00 0.00 0.00 55 1028.9
20260831005310 75 112 2.6 7.8 0.00 0.00 0.00 55 1028.9
20260831004807 75 126 2.6 7.8 0.00 0.00 0.00 54 1029.0
20260831004306 75 136 1.7 6.1 0.00 0.00 0.00 56 1029.0
20260831003758 74 122 1.7 6.1 0.00 0.00 0.00 56 1029.0
20260831003258 74 161 1.7 4.3 0.00 0.00 0.00 58 1029.1
20260831002754 74 103 1.7 4.3 0.00 0.00 0.00 57 1029.2
20260831002252 74 201 1.7 9.6 0.00 0.00 0.00 57 1029.2
20260831001750 74 115 2.6 9.6 0.00 0.00 0.00 57 1029.3
20260831001251 74 104 1.7 8.7 0.00 0.00 0.00 59 1029.3
20260831000746 73 120 1.7 4.3 0.00 0.00 0.00 59 1029.3
20260831000249 73 104 1.7 5.2 0.00 0.00 0.00 59 1029.4
20260831000003 73 113 1.7 5.2 0.00 0.00 0.00 61 1029.5
20260830235238 72 124 1.7 5.2 0.00 0.00 0.00 61 1029.5
20260830234735 72 124 2.6 8.7 0.00 0.00 0.00 62 1029.6
20260830234238 71 167 3.5 8.7 0.00 0.00 0.00 62 1029.5
20260830233707 71 193 3.5 7.8 0.00 0.00 0.00 62 1029.6
20260830233426 71 165 3.5 8.7 0.00 0.00 0.00 63 1029.6
20260830232650 71 127 2.6 8.7 0.00 0.00 0.00 62 1029.7
20260830232127 71 106 2.6 5.2 0.00 0.00 0.00 64 1029.6
20260830231624 70 189 2.6 8.7 0.00 0.00 0.00 64 1029.6
20260830231137 69 144 2.6 8.7 0.00 0.00 0.00 66 1029.6
20260830230621 69 180 2.6 8.7 0.00 0.00 0.00 67 1029.6
20260830230124 68 221 2.6 7.0 0.00 0.00 0.00 69 1029.6
20260830225620 67 206 2.6 7.8 0.00 0.00 0.00 72 1029.6
20260830225340 67 175 1.7 7.8 0.00 0.00 0.00 73 1029.6
20260830224619 66 175 1.7 7.0 0.00 0.00 0.00 75 1029.6
20260830224124 65 222 1.7 6.1 0.00 0.00 0.00 77 1029.6
20260830223614 65 222 1.7 6.1 0.00 0.00 0.00 78 1029.7
20260830223116 64 214 1.7 5.2 0.00 0.00 0.00 79 1029.7
20260830222613 63 209 1.7 4.3 0.00 0.00 0.00 81 1029.7
20260830222111 62 248 0.9 4.3 0.00 0.00 0.00 82 1029.7
20260830222045 61 239 1.7 5.2 0.00 0.00 0.00 85 1029.5
20260830221709 62 185 1.7 3.5 0.00 0.00 0.00 83 1029.6
20260830220609 60 252 1.7 5.2 0.00 0.00 0.00 86 1029.5
20260830220111 60 254 1.7 3.5 0.00 0.00 0.00 87 1029.4
20260830215803 59 254 1.7 4.3 0.00 0.00 0.00 88 1029.4
20260830215019 58 254 1.7 5.2 0.00 0.00 0.00 88 1029.4
20260830214451 58 216 1.7 3.5 0.00 0.00 0.00 89 1029.4